Location: Neuvy Saint Sepulchre
(46.5953°N, 1.8122°E)
Time: 13:17:21
(UTC+02:00)

ISS - Pass Details

Date: 20 September 2022
Orbit: 414 x 417 km, 51.6° (Epoch: 01 October)

Event Time Altitude Azimuth Distance (km) Brightness Sun altitude
Rises 22:56:14 0° 287° (WNW) 2,366 1.0 -29.8°
Reaches altitude 10° 22:58:27 10° 297° (WNW) 1,502 -0.1 -30.0°
Enters shadow 22:59:09 15° 303° (WNW) 1,251 -0.6 -30.1°
